Weather in Novopodrezkovo

Russia / Moscow Oblast     55°56′30″N   37°21′18″E
В апреле 2022 года жителям России запретили посещать сайт meteo.paraplan.net по решению Генеральной прокуратуры. Аудитория сайта уменьшилась в 10 раз. Владельцы сайта не видят смысла в поддержке погодного сервера в таких условиях. Сайт будет закрыт в октябре.
temp.,
°C
wind,
m/s
gust,
m/s
humid.,
%
clouds,
%
prec.,
mm/h
press.,
hPa
HPBL,
m
25 september, sun
sun2500:00+7nw2598100 1.3 996325
03:00+8nnw1399100 2.3 996270
06:00+7nne4796100 1.3 998418
09:00+6ne4696100 1.9 1000467
12:00+7ne2393100 0.4 1002423
15:00+7ne2393100 1.5 1003237
18:00+7n1293100 0.3 1004121
21:00+7nw239395 0.5 1006104
26 september, mon
mon2600:00+6nnw249583 0.0 1006128
03:00+5wnw259494 0.0 1007144
06:00+5wnw369382 0.0 1007180
09:00+7wnw358894 0.0 1008283
12:00+10wnw457060 0.0 1009999
15:00+10wnw467399 0.4 1009891
18:00+8wnw3784100 0.0 1010252
21:00+7w3792100 0.1 1011233
27 september, tue
tue2700:00+6w2693100 0.0 1011172
03:00+6w2392100 0.0 101194
06:00+6wsw1190100 0.1 101129
09:00+7se1286100 0.3 1011169
12:00+10s3475100 0.8 1011811
15:00+9s2484100 1.9 1012385
18:00+8ese2488100 0.5 1012102
21:00+8e41089100 1.3 1012418
28 september, wed
wed2800:00+6e399122 0.0 1012215
03:00+5e41092100 0.0 1011287
06:00+6ene51386100 0.0 1009483
09:00+7e61391100 0.4 1007684
12:00+7e61294100 1.5 1006699
15:00+7e51296100 2.3 1004513
18:00+8e51297100 1.1 1003458
21:00+9e41198100 2.4 1003491
29 september, thu
thu2900:00+9e4999100 1.1 1003367
03:00+9ese3799100 1.4 1003349
06:00+10sse2599100 0.1 1005283
09:00+10wsw479393 0.1 1007448
12:00+10wsw4683100 0.0 1010635
15:00+11w4577100 0.0 1013783
18:00+10wsw2384100 0.0 101588
21:00+10ssw1183100 0.0 101711